User: anonymous   Login
Location: Unspecified
(0.0000°N, 0.0000°E)
Time: 17:14:05
(UTC+02:00)
Language:

Cosmos 1703 - Orbit

View from above orbital plane
View from above orbital plane
View from above satellite
View from above satellite

Ground track
Ground track

The orbit data is extracted from the following two-line orbital elements,

1 16262U 85108A   15181.51204622  .00000522  00000-0  31527-4 0  9998
2 16262 082.4952 233.7673 0005954 209.5678 150.5215 15.08563073610622
Epoch (UTC): 30 June 2015 12:17:20
Eccentricity: 0.0005954
inclination: 82.4952°
perigee height: 536 km
apogee height: 545 km
right ascension of ascending node: 233.7673°
argument of perigee: 209.5678°
revolutions per day: 15.08563073
mean anomaly at epoch: 150.5215°
orbit number at epoch: 61062

The dashed part of the orbit path shows where the satellite is in the earth's shadow,  

DLR